Windom, MN

4:42 AM CST on February 19, 2018 (GMT -0600)
Windom Municipal

Weather History for KMWM - September, 2012

Change the Weather History Date:

Friday, September 14, 2012

  Actual Average Record
Temperature  
Mean Temperature 60 °F -  
Max Temperature 80 °F 73 °F 89 °F (1948)
Min Temperature 41 °F 48 °F 32 °F (1949)
Degree Days  
Heating Degree Days 4    
Growing Degree Days 10 (Base 50)    
Moisture  
Dew Point 40 °F    
Average Humidity 50    
Maximum Humidity 93    
Minimum Humidity 17    
Precipitation  
Precipitation 0.00 in - - ()
Sea Level Pressure  
Sea Level Pressure 30.26 in    
Wind  
Wind Speed 4 mph (SSE)    
Max Wind Speed 12 mph    
Max Gust Speed 16 mph    
Visibility 10 miles    
Events      
Averages and records for this station are not official NWS values.
T = Trace of Precipitation, MM = Missing Value Source: NWS Daily Summary

Daily Weather History Graph

Daily Weather History Graph

Search for Another Location

Airport or City:

Trip Planner

Search our weather history database for the weather conditions in past years. The results will help you decide how hot, cold, wet, or windy it might be!

Date:

Astronomy

Sep. 14, 2012 Rise Set
Actual Time 6:59 AM CDT 7:31 PM CDT
Civil Twilight 6:30 AM CDT 8:00 PM CDT
Nautical Twilight 5:55 AM CDT 8:34 PM CDT
Astronomical Twilight 5:20 AM CDT 9:10 PM CDT
Moon 5:22 AM CDT (9/14) 6:29 PM CDT (9/14)
Length of Visible Light 13h 30m
Length of Day
12h 32m
Waning Crescent, 2% of the Moon is Illuminated
Sep 14
Waning Crescent
Sep 15
New
Sep 22
First Quarter
Sep 29
Full
Oct 8
Last Quarter

Hourly Weather History & Observations

Time (CDT) Temp. Windchill Dew Point Humidity Pressure Visibility Wind Dir Wind Speed Gust Speed Precip Events Conditions
12:12 AM 60.8 °F - 44.6 °F 55% 30.29 in 10.0 mi SW 6.9 mph - N/A   Clear
12:33 AM 59.0 °F - 46.4 °F 63% 30.28 in 10.0 mi SSW 5.8 mph - N/A   Clear
12:53 AM 57.2 °F - 46.4 °F 67% 30.28 in 10.0 mi SW 5.8 mph - N/A   Clear
1:12 AM 55.4 °F - 46.4 °F 72% 30.29 in 10.0 mi Calm Calm - N/A   Clear
1:33 AM 55.4 °F - 46.4 °F 72% 30.29 in 10.0 mi WSW 3.5 mph - N/A   Clear
1:53 AM 55.4 °F - 46.4 °F 72% 30.29 in 10.0 mi Calm Calm - N/A   Clear
2:12 AM 55.4 °F - 46.4 °F 72% 30.28 in 10.0 mi SW 3.5 mph - N/A   Clear
2:33 AM 53.6 °F - 46.4 °F 77% 30.28 in 10.0 mi Calm Calm - N/A   Clear
2:53 AM 53.6 °F - 44.6 °F 72% 30.27 in 10.0 mi South 3.5 mph - N/A   Clear
3:12 AM 53.6 °F - 46.4 °F 77% 30.27 in 10.0 mi South 6.9 mph - N/A   Clear
3:33 AM 53.6 °F - 44.6 °F 72% 30.26 in 10.0 mi SSW 6.9 mph - N/A   Clear
3:53 AM 53.6 °F - 44.6 °F 72% 30.26 in 10.0 mi SSW 5.8 mph - N/A   Clear
4:12 AM 53.6 °F - 44.6 °F 72% 30.26 in 10.0 mi SW 4.6 mph - N/A   Clear
4:33 AM 51.8 °F - 44.6 °F 76% 30.28 in 10.0 mi NNW 8.1 mph - N/A   Clear
4:53 AM 50.0 °F - 44.6 °F 82% 30.27 in 10.0 mi West 4.6 mph - N/A   Clear
5:12 AM 46.4 °F - 44.6 °F 93% 30.28 in 10.0 mi Calm Calm - N/A   Clear
5:33 AM 46.4 °F 43.5 °F 42.8 °F 87% 30.29 in 10.0 mi North 5.8 mph - N/A   Clear
5:52 AM 46.4 °F - 42.8 °F 87% 30.28 in 10.0 mi Calm Calm - N/A   Clear
6:13 AM 46.4 °F - 42.8 °F 87% 30.28 in 10.0 mi Calm Calm - N/A   Clear
6:32 AM 42.8 °F - 39.2 °F 87% 30.28 in 10.0 mi Calm Calm - N/A   Clear
6:52 AM 42.8 °F - 39.2 °F 87% 30.29 in 10.0 mi Calm Calm - N/A   Clear
7:12 AM 42.8 °F - 39.2 °F 87% 30.29 in 10.0 mi Calm Calm - N/A   Clear
7:32 AM 41.0 °F - 37.4 °F 87% 30.29 in 10.0 mi Calm Calm - N/A   Clear
7:53 AM 46.4 °F - 42.8 °F 87% 30.30 in 10.0 mi Calm Calm - N/A   Clear
8:12 AM 48.2 °F - 44.6 °F 87% 30.30 in 10.0 mi Calm Calm - N/A   Clear
8:32 AM 53.6 °F - 46.4 °F 77% 30.30 in 10.0 mi Calm Calm - N/A   Clear
8:53 AM 57.2 °F - 46.4 °F 67% 30.30 in 10.0 mi SW 3.5 mph - N/A   Clear
9:12 AM 59.0 °F - 46.4 °F 63% 30.30 in 10.0 mi West 3.5 mph - N/A   Clear
9:32 AM 60.8 °F - 46.4 °F 59% 30.30 in 10.0 mi West 3.5 mph - N/A   Clear
9:53 AM 62.6 °F - 44.6 °F 52% 30.30 in 10.0 mi Calm Calm - N/A   Clear
10:12 AM 64.4 °F - 42.8 °F 45% 30.30 in 10.0 mi NNE 4.6 mph - N/A   Clear
10:32 AM 66.2 °F - 42.8 °F 43% 30.30 in 10.0 mi North 4.6 mph - N/A   Clear
10:53 AM 68.0 °F - 42.8 °F 40% 30.30 in 10.0 mi East 3.5 mph - N/A   Clear
11:12 AM 69.8 °F - 41.0 °F 35% 30.30 in 10.0 mi East 5.8 mph - N/A   Clear
11:32 AM 71.6 °F - 37.4 °F 29% 30.30 in 10.0 mi East 8.1 mph - N/A   Clear
11:53 AM 73.4 °F - 39.2 °F 29% 30.30 in 10.0 mi East 11.5 mph - N/A   Clear
12:12 PM 73.4 °F - 39.2 °F 29% 30.30 in 10.0 mi East 9.2 mph - N/A   Clear
12:32 PM 75.2 °F - 37.4 °F 25% 30.30 in 10.0 mi East 8.1 mph - N/A   Clear
12:53 PM 75.2 °F - 37.4 °F 25% 30.29 in 10.0 mi East 9.2 mph - N/A   Clear
1:12 PM 75.2 °F - 39.2 °F 27% 30.29 in 10.0 mi East 8.1 mph - N/A   Clear
1:32 PM 77.0 °F - 39.2 °F 26% 30.29 in 10.0 mi East 8.1 mph 16.1 mph N/A   Clear
2:12 PM 78.8 °F - 35.6 °F 21% 30.28 in 10.0 mi SSE 9.2 mph - N/A   Clear
2:53 PM 78.8 °F - 35.6 °F 21% 30.26 in 10.0 mi SSE 6.9 mph - N/A   Clear
3:12 PM 78.8 °F - 35.6 °F 21% 30.26 in 10.0 mi South 6.9 mph - N/A   Clear
3:32 PM 78.8 °F - 33.8 °F 20% 30.25 in 10.0 mi SSE 8.1 mph - N/A   Clear
3:53 PM 78.8 °F - 33.8 °F 20% 30.25 in 10.0 mi SSW 4.6 mph - N/A   Clear
4:13 PM 78.8 °F - 33.8 °F 20% 30.24 in 10.0 mi Calm Calm - N/A   Clear
4:32 PM 80.6 °F - 33.8 °F 18% 30.24 in 10.0 mi South 6.9 mph - N/A   Clear
4:53 PM 80.6 °F - 33.8 °F 18% 30.24 in 10.0 mi SSE 6.9 mph - N/A   Clear
5:13 PM 80.6 °F - 33.8 °F 18% 30.23 in 10.0 mi SSE 3.5 mph - N/A   Clear
5:32 PM 80.6 °F - 33.8 °F 18% 30.23 in 10.0 mi South 3.5 mph - N/A   Clear
5:53 PM 78.8 °F - 30.2 °F 17% 30.22 in 10.0 mi SSW 6.9 mph - N/A   Clear
6:13 PM 78.8 °F - 32.0 °F 18% 30.22 in 10.0 mi South 4.6 mph - N/A   Clear
6:32 PM 77.0 °F - 33.8 °F 21% 30.22 in 10.0 mi SSE 5.8 mph - N/A   Clear
6:53 PM 75.2 °F - 35.6 °F 24% 30.22 in 10.0 mi SSE 4.6 mph - N/A   Clear
7:12 PM 73.4 °F - 35.6 °F 25% 30.22 in 10.0 mi SE 4.6 mph - N/A   Clear
7:33 PM 69.8 °F - 35.6 °F 28% 30.22 in 10.0 mi SE 5.8 mph - N/A   Clear
7:53 PM 68.0 °F - 37.4 °F 33% 30.22 in 10.0 mi ESE 5.8 mph - N/A   Clear
8:12 PM 66.2 °F - 37.4 °F 35% 30.22 in 10.0 mi ESE 5.8 mph - N/A   Clear
8:33 PM 66.2 °F - 37.4 °F 35% 30.22 in 10.0 mi ESE 6.9 mph - N/A   Clear
8:53 PM 66.2 °F - 37.4 °F 35% 30.22 in 10.0 mi ESE 4.6 mph - N/A   Clear
9:12 PM 60.8 °F - 39.2 °F 45% 30.22 in 10.0 mi Calm Calm - N/A   Clear
9:52 PM 60.8 °F - 39.2 °F 45% 30.22 in 10.0 mi Calm Calm - N/A   Clear
10:13 PM 62.6 °F - 39.2 °F 42% 30.22 in 10.0 mi SE 3.5 mph - N/A   Clear
10:33 PM 60.8 °F - 39.2 °F 45% 30.21 in 10.0 mi SE 3.5 mph - N/A   Clear
10:52 PM 60.8 °F - 39.2 °F 45% 30.22 in 10.0 mi SSE 6.9 mph - N/A   Clear
11:13 PM 60.8 °F - 39.2 °F 45% 30.21 in 10.0 mi SE 6.9 mph - N/A   Clear
11:33 PM 60.8 °F - 41.0 °F 48% 30.20 in 10.0 mi SSE 8.1 mph - N/A   Clear
11:53 PM 60.8 °F - 41.0 °F 48% 30.20 in 10.0 mi SSE 6.9 mph - N/A   Clear